Zurück zum Katalog

DELTA 1 DEB

AktivLEO
NORAD 7068·DEBRIS·🇺🇸 United States

Gestartet Nov 6, 1973 von Vandenberg Space Force Base

Loading…

Nächste Überflüge (nächste 24 Stunden)

TLE

AktuellSource: Space-Track

Epoche: Sep 13, 2026, 16:48 UTC

1 07068U 73086BL  26256.70052574  .00000007  00000-0  23572-3 0  9995
2 07068 102.3941 248.1012 0215211 353.7425  57.3208 12.81709810470072

Verfolge DELTA 1 DEB in Echtzeit mit AllMySat

Download on the App Store